EW0408 Weather Reports


Display with metric or nautical units.
time (UTC)temp
F
wind
direction
speed
MPH
gust
MPH
rain 1hr
in
rain 24hr
in
rain mn
in
humidity
%
barometer
mb
20260503020004 70 234 3.0 9.0 0.01 0.08 0.08 92 1012.3
20260503015005 70 249 3.0 9.0 0.01 0.08 0.08 92 1012.5
20260503014005 71 244 3.0 7.0 0.01 0.08 0.08 92 1012.2
20260503013005 71 227 3.0 10.0 0.01 0.08 0.08 92 1011.6
20260503012005 71 239 3.0 7.0 0.01 0.08 0.08 92 1011.8
20260503011005 71 236 3.0 8.0 0.01 0.08 0.08 92 1011.5
20260503010004 71 238 4.0 9.0 0.00 0.07 0.07 92 1011.6
20260503005005 70 199 2.0 7.0 0.00 0.07 0.07 91 1010.9
20260503004005 70 201 2.0 4.0 0.00 0.07 0.07 91 1010.6
20260503003005 71 224 1.0 5.0 0.00 0.07 0.07 91 1011.1
20260503002004 71 206 1.0 6.0 0.00 0.07 0.07 91 1011.6
20260503001005 71 213 3.0 7.0 0.00 0.07 0.07 91 1011.7
20260503000025 71 216 3.0 7.0 0.00 0.07 0.07 91 1011.7
20260502235004 72 216 3.0 7.0 0.00 0.07 0.07 90 1011.8
20260502234004 72 221 1.0 4.0 0.01 0.07 0.07 90 1011.7
20260502233005 72 219 0.0 1.0 0.01 0.07 0.07 89 1011.6
20260502232005 72 219 0.0 1.0 0.07 0.07 0.07 89 1011.6
20260502231005 72 0 0.0 0.0 0.07 0.07 0.07 88 1011.6
20260502230005 72 0 0.0 0.0 0.07 0.07 0.07 88 1011.7
20260502225004 72 230 1.0 6.0 0.07 0.07 0.07 87 1011.8
20260502224026 73 246 3.0 8.0 0.06 0.06 0.06 86 1012.0
20260502223025 74 270 6.0 17.0 0.06 0.06 0.06 82 1012.0
20260502222026 77 272 8.0 20.0 0.00 0.00 0.00 75 1011.9
20260502221004 77 276 7.0 17.0 0.00 0.00 0.00 74 1011.6
20260502220004 78 280 9.0 19.0 0.00 0.00 0.00 72 1011.5
20260502215004 82 274 6.0 15.0 0.00 0.00 0.00 67 1011.3
20260502214004 84 276 5.0 15.0 0.00 0.00 0.00 63 1011.0
20260502213005 84 270 4.0 10.0 0.00 0.00 0.00 64 1010.7
20260502212004 84 267 4.0 10.0 0.00 0.00 0.00 63 1010.5
20260502211005 85 266 4.0 11.0 0.00 0.00 0.00 63 1010.5
20260502210005 86 273 5.0 12.0 0.00 0.00 0.00 62 1010.4
20260502205004 86 272 5.0 16.0 0.00 0.00 0.00 62 1010.3
20260502204004 87 267 6.0 21.0 0.00 0.00 0.00 62 1010.4
20260502203005 87 274 6.0 15.0 0.00 0.00 0.00 61 1010.4
20260502202004 88 263 6.0 14.0 0.00 0.00 0.00 60 1010.5
20260502201004 88 256 5.0 13.0 0.00 0.00 0.00 60 1010.2
20260502200004 88 251 5.0 13.0 0.00 0.00 0.00 59 1010.3
20260502195004 88 260 6.0 17.0 0.00 0.00 0.00 60 1010.5
20260502194005 88 261 6.0 14.0 0.00 0.00 0.00 60 1010.4
20260502193004 88 258 6.0 12.0 0.00 0.00 0.00 60 1010.5
20260502192004 88 264 8.0 18.0 0.00 0.00 0.00 59 1010.5
20260502191006 88 248 7.0 19.0 0.00 0.00 0.00 59 1010.6
20260502190005 89 251 8.0 17.0 0.00 0.00 0.00 59 1010.7
20260502185004 89 256 9.0 19.0 0.00 0.00 0.00 58 1010.7
20260502184025 90 252 7.0 21.0 0.00 0.00 0.00 56 1010.8
20260502182004 89 243 9.0 22.0 0.00 0.00 0.00 57 1010.8
20260502181025 90 239 7.0 17.0 0.00 0.00 0.00 57 1010.7
20260502164004 88 231 9.0 18.0 0.00 0.00 0.00 59 1011.3
20260502163004 88 232 7.0 19.0 0.00 0.00 0.00 62 1011.7
20260502162004 89 231 7.0 22.0 0.00 0.00 0.00 62 1011.4
20260502161004 89 225 7.0 17.0 0.00 0.00 0.00 62 1011.5
20260502152025 85 230 8.0 17.0 0.00 0.00 0.00 65 1011.8
20260502151004 87 211 7.0 21.0 0.00 0.00 0.00 64 1011.7
20260502123004 72 188 0.0 3.0 0.00 0.00 0.00 89 1010.9
20260502122004 71 196 0.0 2.0 0.00 0.00 0.00 91 1011.0
20260502121025 70 200 1.0 5.0 0.00 0.00 0.00 92 1011.2
20260502115025 69 191 0.0 3.0 0.00 0.00 0.00 93 1011.0
20260502114025 68 0 0.0 0.0 0.00 0.00 0.00 93 1011.0
20260502113025 68 0 0.0 0.0 0.00 0.00 0.00 93 1010.9
20260502112004 68 192 0.0 4.0 0.00 0.00 0.00 93 1010.9
20260502111005 67 193 1.0 5.0 0.00 0.00 0.00 93 1010.8
20260502110004 67 0 0.0 0.0 0.00 0.00 0.00 92 1011.1
20260502105004 67 197 1.0 4.0 0.00 0.00 0.00 92 1010.9
20260502104025 68 205 1.0 3.0 0.00 0.00 0.00 92 1011.0
20260502103004 68 206 1.0 4.0 0.00 0.00 0.00 92 1011.1
20260502101004 68 210 2.0 5.0 0.00 0.00 0.00 92 1010.9
20260502091004 69 0 0.0 0.0 0.00 0.00 0.00 92 1011.2
20260502071004 68 0 0.0 0.0 0.00 0.00 0.00 89 1011.3
20260502070004 69 0 0.0 0.0 0.00 0.00 0.00 88 1011.4
20260502065004 69 0 0.0 0.0 0.00 0.00 0.00 88 1011.5
20260502064004 69 0 0.0 0.0 0.00 0.00 0.00 88 1011.7
20260502063004 70 0 0.0 0.0 0.00 0.00 0.00 88 1011.7
20260502062004 70 0 0.0 0.0 0.00 0.00 0.00 87 1011.8
20260502061004 70 0 0.0 0.0 0.00 0.00 0.00 87 1011.7
20260502060004 70 252 1.0 5.0 0.00 0.00 0.00 87 1011.7
20260502055025 71 250 1.0 4.0 0.00 0.00 0.00 86 1011.5
20260502054004 71 253 1.0 5.0 0.00 0.00 0.00 86 1011.8
20260502053004 71 252 2.0 4.0 0.00 0.00 0.00 85 1011.8
20260502052004 71 251 3.0 5.0 0.00 0.00 0.00 85 1012.1
20260502051025 71 248 2.0 6.0 0.00 0.00 0.00 84 1012.0
20260502050004 72 252 3.0 6.0 0.00 0.00 0.00 84 1011.9
20260502045004 72 256 2.0 6.0 0.00 0.00 0.00 83 1011.9
20260502044004 72 263 2.0 5.0 0.00 0.00 0.00 82 1012.0
20260502043004 72 244 2.0 5.0 0.00 0.00 0.00 81 1012.0
20260502042025 73 256 2.0 5.0 0.00 0.00 0.00 80 1012.0
20260502041004 73 258 2.0 5.0 0.00 0.00 0.00 79 1012.0
20260502040004 73 261 2.0 4.0 0.00 0.00 0.00 78 1012.0
20260502035004 74 263 2.0 4.0 0.00 0.00 0.00 77 1011.9
20260502034005 74 260 2.0 6.0 0.00 0.00 0.00 76 1012.1
20260502033004 74 260 3.0 5.0 0.00 0.00 0.00 75 1012.1
20260502032025 74 267 2.0 5.0 0.00 0.00 0.00 75 1012.2
20260502031004 75 271 2.0 6.0 0.00 0.00 0.00 74 1012.2
20260502030004 75 260 2.0 6.0 0.00 0.00 0.00 73 1012.1
20260502025003 76 267 2.0 6.0 0.00 0.00 0.00 72 1012.0
20260502024004 76 254 2.0 7.0 0.00 0.00 0.00 71 1012.1
20260502023024 76 244 2.0 6.0 0.00 0.00 0.00 70 1012.1
20260502022004 77 263 3.0 7.0 0.00 0.00 0.00 69 1012.1
20260502021004 77 261 3.0 5.0 0.00 0.00 0.00 69 1012.0